{"data":{"norad_id":52498,"epoch":"2026-05-25T04:00:09.052416Z","epoch_age_seconds":63844,"freshness":"FRESH","line1":"1 52498U 22049AZ  26145.16677144  .00004169  00000+0  28006-3 0  9997","line2":"2 52498  53.2138  55.7982 0001345  92.0993 268.0153 15.08817230224078","mean_motion":15.0881723,"eccentricity":0.0001345,"inclination_deg":53.2138,"raan_deg":55.7982,"arg_perigee_deg":92.0993,"mean_anomaly_deg":268.0153,"bstar":0.00028006,"rev_number":22407,"period_min":95.438994953683,"perigee_km":538.88252434663,"apogee_km":540.74345289357,"semimajor_km":6917.9499886201,"source":"CELESTRAK","updated_at":"2026-05-25T13:38:17.159416Z"}}